This is the latest recevied weather packets stored in our database for station/object SQ7IQO. If no packets are shown the sender has not sent any weather packets the latest 10 day(s).
| Time | Temp. | Humidity | Pressure | Rain* | Wind** | Luminosity | Snow |
|---|---|---|---|---|---|---|---|
| 1787724337 | 17.22° C | 71% | 1023.6 hPa | 0 mm | 0 m/s | - | - |
| 1787724277 | 17.78° C | 73% | 1023.6 hPa | 0 mm | 0 m/s | - | - |
| 1787724217 | 18.33° C | 73% | 1023.5 hPa | 0 mm | 0 m/s | - | - |
| 1787724158 | 17.78° C | 74% | 1023.6 hPa | 0 mm | 0 m/s | - | - |
| 1787724097 | 17.78° C | 75% | 1023.6 hPa | 0 mm | 0 m/s | - | - |
| 1787724038 | 17.22° C | 76% | 1023.6 hPa | 0 mm | 0 m/s | - | - |
| 1787723977 | 16.67° C | 78% | 1023.6 hPa | 0 mm | 0 m/s | - | - |
| 1787723917 | 16.67° C | 78% | 1023.5 hPa | 0 mm | 0 m/s | - | - |
| 1787723857 | 16.67° C | 77% | 1023.5 hPa | 0 mm | 0 m/s | - | - |
| 1787723797 | 16.11° C | 81% | 1023.5 hPa | 0 mm | 0 m/s | - | - |
| 1787723737 | 16.11° C | 81% | 1023.5 hPa | 0 mm | 0 m/s | - | - |
| 1787723677 | 15.56° C | 80% | 1023.5 hPa | 0 mm | 0 m/s | - | - |
| 1787723618 | 16.11° C | 78% | 1023.6 hPa | 0 mm | 0 m/s | - | - |
| 1787723558 | 16.11° C | 77% | 1023.6 hPa | 0 mm | 0 m/s | - | - |
| 1787723498 | 16.67° C | 79% | 1023.5 hPa | 0 mm | 0 m/s | - | - |
| 1787723438 | 16.11° C | 80% | 1023.5 hPa | 0 mm | 0 m/s | - | - |
| 1787723378 | 16.11° C | 82% | 1023.5 hPa | 0 mm | 0 m/s | - | - |
| 1787723318 | 15.56° C | 82% | 1023.5 hPa | 0 mm | 0 m/s | - | - |
| 1787723259 | 15.56° C | 81% | 1023.6 hPa | 0 mm | 0 m/s | - | - |
| 1787723198 | 15.56° C | 82% | 1023.5 hPa | 0 mm | 0 m/s | - | - |
| 1787723138 | 15.56° C | 84% | 1023.5 hPa | 0 mm | 0 m/s | - | - |
| 1787723078 | 15.56° C | 83% | 1023.5 hPa | 0 mm | 0 m/s | - | - |
| 1787723018 | 15.56° C | 87% | 1023.5 hPa | 0 mm | 0 m/s | - | - |
| 1787722958 | 15.56° C | 88% | 1023.5 hPa | 0 mm | 0 m/s | - | - |
| 1787722897 | 15° C | 94% | 1023.5 hPa | 0 mm | 0 m/s | - | - |
* Rain latest hour (hover to see other rain measurements)
** Current wind speed in m/s (hover to see current wind gust speed)